ブランパン彗星

289P/Blanpain (2019)

English version
Home page
Updated on August 15, 2020

---------------------------------------------------------------------

・ プロフィール

・ 写真集

・ 軌道要素

Epoch 2019 Dec. 23.0 TT = JDT 2458840.5                                         
T 2019 Dec. 20.99005 TT                                 MPCW                    
q   0.9588857            (2000.0)            P               Q                  
n   0.18531536     Peri.    9.84665     +0.19558425     -0.97598902             
a   3.0469250      Node    68.92384     +0.89262870     +0.13668019             
e   0.6852940      Incl.    5.89754     +0.40615368     +0.16959940             
P   5.32                                                                        
From 341 observations 2003 Oct. 25-2019 Nov. 21, mean residual 0".8.            
     Nongravitational parameters A1 = -0.10, A2 = -0.0082.                      

・ 星図

・ 光度変化

        m1 = 21.0 + 5 logΔ + 2.0 log r(t + 100)

        ※ 緑色の曲線は、H = 19.5  G = 0.15 の光度曲線です。

---------------------------------------------------------------------

軌道要素はM.P.E.C. 2019-X94に掲載されたものです。
星図はステラナビゲータ Ver.10 (アストロアーツ) で作成したものです。
光度グラフはComet for Windowsで作成したものです。

---------------------------------------------------------------------

Copyright(C) Seiichi Yoshida (comet@aerith.net). All rights reserved.